Theta_e
353 353 352 353 354 353 352 352 351 353 350 350 350 351 351 351 350 352 349 347 344 342 348 347 347 346 345 345 342 342 340 340 339 332 330 329 328 342 344 345 345 341 341
356 353 354 354 351 351 352 351 353 352 352 352 351 352 352 351 350 350 349 347 345 340 341 346 341 339 340 341 341 344 341 339 338 335 328 325 331 337 339 342 343 344 340
358 356 349 352 349 351 352 351 353 349 351 353 353 352 352 351 350 347 346 347 344 339 331 343 343 342 341 340 335 332 333 330 332 331 330 331 333 333 326 332 339 342 341
356 355 351 352 352 354 353 352 349 352 352 352 353 351 349 350 349 343 343 341 342 341 330 331 338 339 339 339 339 338 336 335 334 333 334 332 332 335 333 327 329 336 342
352 355 352 355 358 355 354 353 353 355 355 353 347 353 349 347 344 341 343 342 340 341 342 335 330 328 324 329 330 330 333 336 336 335 331 333 335 334 335 335 331 336 338
354 354 356 357 357 352 353 356 357 356 355 353 349 350 351 349 344 341 341 339 338 337 337 340 335 331 327 327 326 328 328 331 335 336 336 333 335 336 334 331 332 334 338
354 357 354 355 355 354 358 359 356 356 352 352 349 347 353 350 346 340 336 336 337 336 337 335 333 332 330 330 328 326 327 327 329 334 335 335 334 336 334 332 334 334 337
354 354 358 357 361 357 359 360 359 356 350 353 348 345 342 350 347 344 339 336 338 335 334 332 332 332 330 330 328 325 325 326 325 329 334 335 332 332 333 334 334 333 336
353 356 359 360 360 357 355 359 360 359 354 352 351 344 341 341 335 345 343 339 335 335 334 332 331 331 330 328 329 326 321 324 325 325 331 334 333 332 333 334 334 334 334
353 354 359 359 359 360 360 357 359 360 360 350 340 338 346 341 338 336 339 344 340 336 337 332 329 329 328 329 328 323 320 322 323 324 327 332 335 334 332 330 334 334 334
351 354 357 358 359 358 361 360 360 361 355 351 339 335 335 334 339 333 334 332 336 336 332 330 329 328 327 328 327 325 320 319 318 319 326 331 333 335 332 332 334 338 337
353 359 357 357 360 361 362 360 362 360 357 354 343 337 333 331 329 328 329 331 330 330 332 330 329 327 326 328 326 325 321 317 317 320 323 328 331 333 333 332 336 337 336
350 362 358 358 357 359 361 363 362 359 357 352 343 335 327 324 322 322 323 324 326 328 331 331 329 328 325 328 325 326 322 318 317 319 321 325 329 332 333 332 336 337 335
350 360 356 356 357 359 360 362 361 357 353 346 339 333 328 323 323 323 323 323 325 325 330 335 330 328 326 327 324 325 321 317 317 317 321 320 326 330 332 333 334 334 335
351 355 356 356 356 359 359 363 362 355 349 344 337 331 326 323 323 323 323 324 326 328 327 332 327 328 328 327 325 324 322 317 316 316 317 318 319 327 331 331 334 336 335
354 358 357 356 357 359 361 363 362 352 345 344 335 332 328 323 322 322 324 325 326 326 329 329 327 328 326 326 323 323 321 319 316 316 316 316 317 322 328 331 328 329 331
354 359 358 358 358 358 362 363 362 353 347 344 336 329 327 325 322 326 328 327 327 327 328 328 326 328 327 325 324 323 323 321 318 316 316 315 316 319 324 328 330 327 326
354 356 357 358 359 356 360 364 362 353 347 346 335 328 325 321 330 330 327 328 328 326 327 328 328 326 325 325 324 323 322 321 320 316 316 315 315 315 319 324 327 329 329
353 353 355 358 359 357 358 364 363 355 347 343 334 327 324 327 331 330 329 328 327 326 326 326 324 322 323 323 324 322 321 320 319 316 316 316 314 315 315 318 324 326 328
354 353 354 356 358 357 359 364 362 353 347 338 332 325 322 330 330 330 328 327 327 327 326 324 324 323 323 322 323 323 320 318 317 316 315 315 316 314 315 314 317 324 326
359 355 352 354 356 355 358 365 361 353 343 336 327 321 328 325 323 323 325 327 328 326 325 324 323 323 321 321 321 322 319 316 315 315 315 315 316 317 317 315 314 318 326
361 359 354 351 352 353 356 361 360 352 343 334 321 327 320 318 318 318 318 319 320 323 324 324 323 323 320 319 321 320 317 318 317 314 314 314 315 315 316 316 314 315 324
362 361 356 352 351 356 359 361 358 351 343 329 321 325 324 323 323 321 322 324 322 321 321 323 322 320 320 318 319 318 316 314 314 314 314 313 313 314 315 313 312 314 320
363 363 359 354 353 357 360 361 359 351 342 327 324 325 326 325 325 325 326 325 323 321 321 321 320 318 317 318 319 319 316 314 313 313 313 313 314 314 314 315 312 312 317
365 364 362 358 357 360 360 361 359 350 338 327 325 325 327 326 325 323 325 326 326 322 320 321 320 319 317 317 319 317 316 314 313 312 312 312 312 312 313 315 314 313 312
365 364 363 363 363 363 360 362 359 351 337 329 325 324 324 326 320 317 325 325 327 325 323 323 321 320 319 317 317 318 317 316 314 313 312 313 312 312 313 313 315 315 313
Wind_Speed
5 6 5 8 5 9 10 8 10 8 10 9 9 9 9 8 8 7 7 10 12 10 7 5 5 4 6 10 10 9 16 20 18 18 18 31 23 17 20 21 22 26 27
5 4 4 7 7 9 7 9 8 9 11 8 8 6 7 14 8 7 9 8 10 11 11 9 7 4 5 7 4 8 9 15 22 18 16 15 29 25 23 21 21 24 28
4 7 6 7 7 5 5 7 10 9 10 2 2 6 10 8 9 7 8 7 15 15 17 17 16 16 16 17 14 7 4 3 7 10 11 20 17 21 17 24 19 23 27
4 7 4 9 8 4 6 11 13 13 11 13 3 4 7 4 1 6 8 7 6 13 17 15 16 18 17 15 13 9 8 7 8 11 13 15 16 22 21 19 22 23 25
4 6 6 10 9 10 8 13 13 10 16 11 11 9 6 3 5 8 6 8 5 8 11 11 12 13 13 13 13 11 9 7 6 9 12 14 17 19 20 22 24 25 30
3 8 4 5 10 11 12 12 12 12 11 7 14 2 2 2 4 5 6 6 6 5 7 5 9 10 12 12 13 13 10 9 10 9 6 12 17 21 23 22 22 27 33
6 5 11 10 10 13 7 10 13 14 11 11 15 8 6 3 5 6 6 6 6 5 5 5 6 7 6 12 15 15 14 11 11 11 7 8 17 20 23 24 25 32 38
5 7 8 12 13 11 8 10 11 13 12 7 11 13 5 6 4 3 4 3 3 1 2 5 5 7 8 7 10 15 14 14 12 9 10 8 10 16 18 22 23 29 35
4 4 7 9 11 13 14 10 10 9 12 11 6 6 5 6 13 4 3 1 2 4 3 0 1 4 7 7 8 11 14 13 13 13 12 11 9 9 10 16 20 27 34
4 3 4 8 10 12 12 12 11 11 8 14 11 10 3 1 4 6 2 6 3 2 3 6 3 1 5 6 10 11 14 13 12 13 12 13 11 8 7 8 13 22 33
3 1 4 7 8 12 11 9 9 10 11 11 10 10 8 7 5 7 7 6 6 4 1 4 4 5 5 3 9 11 14 14 14 13 15 16 14 10 7 7 9 14 48
4 4 3 6 6 10 10 9 7 8 9 8 9 8 9 10 10 11 7 9 8 6 2 2 3 5 6 8 9 11 13 14 15 14 14 16 17 13 5 5 12 25 44
6 8 3 4 6 9 7 7 6 5 7 8 9 10 7 8 8 10 12 13 11 10 3 3 1 4 6 6 10 11 13 15 15 15 16 15 16 14 10 4 9 26 31
4 3 2 2 3 5 7 6 4 4 5 4 6 7 7 7 8 9 10 12 9 13 8 3 1 4 7 5 9 9 13 15 15 15 17 16 16 14 13 8 5 27 30
7 5 4 3 4 4 5 5 1 3 3 3 3 6 8 7 8 9 10 10 10 8 9 6 5 6 8 8 8 8 11 14 17 18 17 16 16 17 17 17 16 18 30
9 6 6 5 5 5 5 4 0 1 2 2 4 5 8 7 8 9 10 10 10 11 7 10 11 7 7 5 5 7 10 12 15 17 18 17 15 15 17 19 19 19 28
11 10 9 8 8 8 4 4 2 2 2 1 3 4 5 8 8 9 10 11 11 12 11 15 8 7 5 5 4 6 6 11 12 15 17 16 15 15 17 16 20 21 23
15 13 11 11 10 10 7 4 5 3 4 2 1 3 4 6 6 8 9 8 9 10 11 9 5 7 6 6 5 6 10 9 11 12 15 15 14 13 14 15 16 18 23
16 15 13 12 12 11 10 6 5 6 4 3 2 2 3 5 7 8 9 11 11 8 10 11 11 12 8 9 7 10 11 11 10 11 14 14 14 11 11 11 13 14 17
18 17 15 14 13 11 11 7 6 6 5 4 4 4 4 5 5 6 9 10 12 15 11 10 10 10 7 8 6 8 9 8 9 8 9 11 11 12 10 9 10 11 11
18 18 17 16 14 12 13 10 9 7 7 7 6 6 5 6 4 7 9 11 12 14 13 13 13 12 10 8 7 6 11 10 13 10 11 11 10 10 10 9 6 11 11
18 17 18 17 15 14 15 16 12 10 9 9 10 7 8 9 8 10 13 16 18 14 15 13 13 11 9 8 6 11 11 6 4 8 10 12 10 11 10 9 5 10 14
18 18 17 17 16 14 9 12 12 10 11 11 13 10 9 8 9 8 10 9 14 15 13 13 12 12 9 8 5 7 9 10 6 10 13 11 11 11 12 9 9 12 12
19 18 17 16 16 15 16 13 11 11 11 13 14 11 7 10 9 6 4 6 8 12 14 14 13 11 9 4 3 2 11 12 11 9 9 4 7 10 10 10 10 11 13
18 17 16 16 16 14 16 16 14 14 13 14 14 12 10 10 10 9 4 3 4 5 5 10 13 15 18 13 8 9 9 10 6 4 5 10 6 9 10 10 9 10 12
18 17 16 16 17 17 18 19 18 16 15 15 14 15 14 11 12 11 4 3 1 6 5 2 6 10 10 12 11 10 6 7 11 7 7 5 11 7 5 6 8 7 10
Wind_Direction
23 31 356 353 351 18 7 3 2 350 316 350 2 1 350 29 18 69 66 32 40 48 50 11 341 301 281 280 276 249 242 249 238 257 261 241 272 231 224 223 220 216 212
36 352 345 312 33 23 3 358 330 329 317 20 354 25 9 35 31 18 45 76 66 69 67 65 57 26 344 343 315 210 254 250 259 242 256 234 230 226 228 220 223 219 216
26 316 356 350 15 357 347 352 323 351 342 25 104 111 82 35 49 38 30 78 96 83 83 80 75 65 62 64 66 73 58 324 274 256 248 235 217 221 227 239 226 220 216
8 302 290 37 342 329 357 352 1 356 354 5 33 70 36 33 220 49 35 25 20 93 87 84 83 74 66 55 51 42 16 340 298 264 243 249 248 237 232 235 239 230 220
29 304 16 33 315 323 35 355 354 359 354 348 331 124 105 5 16 18 55 69 34 95 99 96 90 71 55 53 45 31 23 13 335 284 270 260 246 246 240 241 244 230 225
32 336 1 8 332 346 2 354 342 342 325 352 324 100 134 80 25 44 51 68 62 47 70 108 101 92 58 34 34 33 21 4 358 350 298 263 243 238 241 240 244 233 220
6 322 351 351 349 348 338 360 349 352 336 24 325 344 142 145 70 38 30 22 33 43 57 47 34 30 74 57 39 28 25 17 2 355 338 297 260 237 239 238 236 226 211
331 318 352 339 6 333 67 7 7 347 351 4 2 329 339 152 177 41 26 5 82 322 77 39 37 26 6 24 55 19 22 13 12 353 359 336 261 247 247 240 231 216 205
303 338 343 352 351 324 13 3 9 359 348 343 41 22 342 357 333 150 167 137 314 300 19 42 66 32 2 1 54 23 17 14 11 4 356 354 307 263 235 240 225 207 205
294 316 358 356 357 344 19 6 8 349 354 355 358 19 85 33 347 328 251 187 222 229 142 284 307 145 20 68 75 39 15 10 8 12 0 356 357 318 253 271 237 217 207
228 335 358 359 4 5 20 7 5 4 10 358 2 347 344 310 200 313 312 318 233 189 188 277 341 322 357 71 61 40 23 22 15 9 19 7 7 357 278 283 235 218 209
189 158 10 359 4 6 12 6 11 19 19 13 348 343 350 346 348 330 328 312 337 302 17 285 295 336 339 78 65 53 37 29 21 20 19 26 21 16 328 334 210 151 158
223 111 48 11 0 359 8 10 6 29 27 14 2 344 353 356 348 341 332 337 322 301 233 237 196 341 347 86 76 65 48 35 29 26 30 29 27 38 40 82 141 151 154
238 104 310 327 351 341 347 359 1 34 39 25 21 351 341 360 355 350 346 339 331 335 36 27 81 34 4 50 61 84 53 46 44 35 36 35 38 44 55 75 113 158 155
257 214 242 291 311 328 331 340 12 57 56 8 17 347 339 3 355 350 347 350 343 332 330 107 16 72 62 79 83 90 66 60 57 47 40 39 43 55 71 70 79 120 144
230 263 265 271 286 300 308 316 272 100 94 15 4 7 359 0 350 359 358 355 352 339 318 37 26 38 2 44 99 98 94 71 59 53 46 42 47 55 78 92 90 100 106
231 234 245 257 269 282 269 287 318 180 137 99 42 32 21 20 16 6 5 3 4 2 333 356 34 65 51 355 60 104 113 92 65 56 51 47 49 61 68 92 113 117 114
230 231 233 242 256 273 285 250 246 206 189 137 87 54 34 25 8 21 8 15 23 13 352 340 35 66 45 15 41 92 79 90 80 59 54 49 52 63 76 83 106 132 137
229 231 228 234 247 262 265 241 237 207 188 150 126 81 60 44 37 29 27 20 9 4 9 351 84 45 72 11 54 88 92 93 79 66 55 49 47 62 81 93 98 117 151
224 228 228 232 242 256 253 237 211 191 182 140 120 101 85 72 54 26 29 16 13 346 9 18 51 44 47 35 64 99 85 83 68 64 70 80 65 64 77 94 114 112 137
224 226 227 229 238 245 244 201 190 191 176 144 135 123 118 113 96 56 57 38 22 18 13 29 38 36 15 16 25 65 93 99 70 77 85 73 83 82 75 65 99 130 115
226 226 225 228 231 240 256 205 180 181 173 165 147 130 137 126 117 93 80 68 54 40 41 21 27 27 14 10 19 69 113 129 96 88 85 77 82 89 89 90 123 139 123
229 226 224 222 226 232 235 199 189 176 176 171 159 160 170 153 126 111 84 72 57 52 51 35 35 19 358 356 5 86 90 87 95 117 104 84 80 90 96 90 118 135 132
224 226 222 219 222 227 213 200 200 169 179 175 174 177 185 164 166 150 129 87 72 68 59 52 47 39 21 20 24 146 118 98 102 126 112 82 84 83 102 100 104 126 141
222 223 220 214 215 224 212 201 191 174 183 183 179 183 185 189 194 169 151 117 94 108 54 49 47 50 44 50 45 146 136 123 96 98 120 117 109 97 105 109 119 127 136
223 225 219 213 211 213 208 206 193 187 182 186 184 181 191 192 202 177 148 139 85 73 134 117 42 55 55 36 49 65 138 151 126 123 157 121 136 129 92 110 116 119 136